Regional Weather Roundup
Issued by NWS

Home | Current Version | Previous Version | Graphics & Text | Print | Product List | Glossary On
Versions: 1 2 3 4 5 6 7 8 9 10 11 12 13 14 15 16 17 18 19 20 21 22 23 24 25 26 27 28 29 30 31
000
ASUS43 KDMX 301407
RWRIA

WEATHER ROUNDUP FOR IOWA
NATIONAL WEATHER SERVICE DES MOINES IA
900 AM CDT THU OCT 30 2014

NOTE: "FAIR" INDICATES FEW OR NO CLOUDS BELOW 12,000 FEET WITH NO
SIGNIFICANT WEATHER AND/OR OBSTRUCTIONS TO VISIBILITY.

* - THESE STATIONS ARE NOT NWS STATIONS...THUS NOT UNDER NWS
QUALITY CONTROL.  THEY ALSO DO NOT REPORT WEATHER SUCH
AS PRECIPITATION OR FOG.

IAZ001>003-012>014-020>022-031>034-043>046-301500-
   NORTHWEST IOWA

CITY           SKY/WX    TMP DP  RH WIND       PRES   REMARKS
CARROLL *      MOSUNNY   41  36  81 CALM      30.02R
CHEROKEE *     MOSUNNY   39  37  93 CALM      30.01R
DENISON *      SUNNY     39  36  87 CALM      30.01R
LE MARS *      CLEAR     39  34  81 W8        30.03R WCI  34
ORANGE CITY *  CLEAR     39  34  81 W7        30.02R WCI  34
SHELDON *      PTCLDY    41  34  75 W5        30.00R
SIOUX CITY     CLEAR     40  34  79 N3        30.04R
SPENCER        CLOUDY    43  36  76 S3        30.01R
STORM LAKE *   SUNNY     39  34  81 SW7       30.01R WCI  34
$$

IAZ055>058-069>071-079>083-090>094-301500-
   SOUTHWEST IOWA

CITY           SKY/WX    TMP DP  RH WIND       PRES   REMARKS
ATLANTIC *     SUNNY     39  36  87 CALM      30.02R
AUDUBON *      SUNNY     37  32  81 CALM      30.03R
CLARINDA *     SUNNY     41  39  93 CALM      30.04R FOG
COUNCIL BLFS * SUNNY     43  37  81 NW6       30.02R
CRESTON *      SUNNY     43  36  75 CALM      30.03R
HARLAN  *      SUNNY     37  36  93 CALM      30.05S
LAMONI         MOSUNNY   43  37  79 E3        30.01R
RED OAK *      SUNNY     41  37  87 CALM      30.03R
SHENANDOAH *   SUNNY     39  39 100 CALM      30.04R
$$

IAZ047>049-059>061-072>074-084-301500-
   CENTRAL IOWA

CITY           SKY/WX    TMP DP  RH WIND       PRES   REMARKS
AMES           MOSUNNY   40  36  86 SE6       30.03R
ANKENY *       SUNNY     45  37  76 S10       30.02R
CHARITON *     MOSUNNY   45  37  76 E7        30.03S
DES MOINES     MOSUNNY   45  36  70 SE12      30.03R
GRINNELL*      CLOUDY    43  37  81 SE9       30.04F
KNOXVILLE *    CLOUDY    41  36  81 E9        30.03S
MARSHALLTOWN   CLOUDY    41  37  86 SE7       30.03R
PELLA *        PTSUNNY   43  37  81 SE10      30.05F
PERRY *          N/A     45  37  76 S7        30.02R
$$

IAZ004>006-015-016-023>025-035-036-301500-
   NORTH CENTRAL IOWA

CITY           SKY/WX    TMP DP  RH WIND       PRES   REMARKS
ALGONA *       CLOUDY    43  37  81 CALM      30.03R
CLARION *      CLOUDY    43  39  87 CALM      30.04R
ESTHERVILLE    CLOUDY    41  36  82 VRB3      30.02R
FORT DODGE *   CLOUDY    43  37  81 CALM      30.03R
MASON CITY     CLOUDY    38  36  92 SE3       30.05R
FOREST CITY *  CLOUDY    39  37  93 E5        30.04S
IOWA FALLS *   CLOUDY    41  37  87 E3        30.05R
$$

IAZ007>011-017>019-026>030-037>042-050>054-066-301500-
   NORTHEAST IOWA

CITY           SKY/WX    TMP DP  RH WIND       PRES   REMARKS
CEDAR RAPIDS   CLOUDY    41  37  86 SE6       30.08S
CHARLES CITY * CLOUDY    39  36  87 SE6       30.07R WCI  35
CLINTON *      PTSUNNY   37  34  87 CALM      30.14R
DECORAH *      CLOUDY    37  34  87 SE5       30.06S WCI  34
DUBUQUE        CLOUDY    37  35  92 SW5       30.10S WCI  33
MONTICELLO *   PTSUNNY   39  37  93 SE5       30.09F
OELWEIN *      CLOUDY    41  36  81 SE7       30.08R
WATERLOO       CLOUDY    41  35  79 SE7       30.06R
$$

IAZ064-065-067-068-078-301500-
   EAST CENTRAL IOWA

CITY           SKY/WX    TMP DP  RH WIND       PRES   REMARKS
DAVENPORT      PTSUNNY   41  34  76 SE5       30.11R
IOWA CITY      CLOUDY    39  36  89 SE3       30.12R
MT. PLEASANT * CLOUDY    41  37  87 SE6       30.10R
MUSCATINE *    CLOUDY    37  36  93 CALM      30.11S
QUAD CITIES    CLOUDY    40  34  79 CALM      30.11R
$$

IAZ062-063-075>077-085>089-095>099-301500-
   SOUTHEAST IOWA

CITY           SKY/WX    TMP DP  RH WIND       PRES   REMARKS
BURLINGTON     CLOUDY    43  36  76 SE5       30.10S
FAIRFIELD *    CLOUDY    43  36  75 SE6       30.08S
FORT MADISON * CLOUDY    46  37  71 S7        30.11R
KEOKUK *       MIX PCPN  45  37  76 S7        30.09S
OSKALOOSA *    CLOUDY    41  37  87 SE6       30.07S
CENTERVILLE *  SUNNY     41  37  87 NE3       30.05S
OTTUMWA        CLOUDY    44  36  73 SE7       30.06S
WASHINGTON *   CLOUDY    43  39  87 SE6       30.09S
$$

ABBREVIATIONS USED IN REMARKS
   TC - TEMPERATURES IN CELSIUS
  WCI - WIND CHILL INDEX
   HX - HEAT INDEX
  VSB - VISIBILITY
$$




USA.gov is the U.S. government's official web portal to all federal, state and local government web resources and services.